"2016-02-24 00:00:00",1401051,4.647,28.27,7.073,1.455,4.816,100.8822,1.55,2.655,25.61,0,109.9,13.17,2.31,350.3
"2016-02-24 00:00:30",1401052,5.056,29.17,8.44,1.551,5.749,100.8825,1.551,2.691,25.47,0,109.9,13.17,2.31,351.2
"2016-02-24 00:01:00",1401053,4.551,29.84,7.165,1.589,6.157,100.8873,1.563,2.672,25.54,0,109.9,13.17,2.32,351.8
"2016-02-24 00:01:30",1401054,3.642,26.54,6.125,1.288,5.141,100.893,1.578,2.725,25.64,0,109.9,13.17,2.34,348.5
"2016-02-24 00:02:00",1401055,4.634,31.65,9.07,1.575,5.757,100.8978,1.59,2.743,25.74,0,109.9,13.16,2.35,353.6
"2016-02-24 00:02:30",1401056,4.59,30.34,8.8,1.549,6.496,100.9012,1.599,2.805,26.09,0,109.9,13.16,2.36,352.3
"2016-02-24 00:03:00",1401057,4.401,36.55,10.79,1.451,5.942,100.9071,1.614,2.771,26.07,0,109.9,13.16,2.37,358.5
"2016-02-24 00:03:30",1401058,4.159,28.14,8.84,1.43,5.584,100.9128,1.628,2.705,25.85,0,109.9,13.15,2.39,350.1
"2016-02-24 00:04:00",1401059,3.114,24.02,8.55,1.352,4.703,100.9156,1.636,2.781,25.85,0,109.9,13.16,2.39,346.0
"2016-02-24 00:04:30",1401060,3.669,31.87,10.88,1.086,4.515,100.9162,1.637,2.703,25.73,0,109.9,13.15,2.39,353.9
"2016-02-24 00:05:00",1401061,3.965,35.39,8.82,1.434,5.895,100.9162,1.637,2.806,26.03,0,109.9,13.15,2.39,357.4
"2016-02-24 00:05:30",1401062,4.085,36.59,6.111,1.393,6.053,100.9162,1.637,2.837,26.1,0,109.9,13.16,2.39,358.6
"2016-02-24 00:06:00",1401063,4.484,43.74,8.13,1.405,6.793,100.9165,1.638,2.869,26.19,0,109.9,13.15,2.40,5.7
"2016-02-24 00:06:30",1401064,4.384,41.57,7.521,1.514,5.547,100.9167,1.638,2.782,25.85,0,109.9,13.15,2.40,3.6
"2016-02-24 00:07:00",1401065,3.68,35.41,6.604,1.291,4.718,100.9167,1.638,2.747,25.81,0,109.9,13.16,2.40,357.4
"2016-02-24 00:07:30",1401066,4.108,36.19,6.967,1.409,4.894,100.9162,1.637,2.763,25.75,0,109.9,13.16,2.39,358.2
"2016-02-24 00:08:00",1401067,5.024,40.1,8.18,1.367,6.782,100.9162,1.637,2.931,26.11,0,109.9,13.16,2.39,2.1
"2016-02-24 00:08:30",1401068,4.775,38.85,7.167,1.517,6.486,100.9162,1.637,2.836,26.18,0,109.9,13.16,2.39,0.8
"2016-02-24 00:09:00",1401069,3.831,32.64,8.73,1.498,5.754,100.9162,1.637,2.868,26.18,0,109.9,13.16,2.39,354.6
"2016-02-24 00:09:30",1401070,3.679,27.16,12.66,1.568,5.306,100.9153,1.635,2.747,26.14,0,109.9,13.16,2.39,349.2
"2016-02-24 00:10:00",1401071,1.273,16.18,10.32,0.623,3.28,100.9128,1.628,2.674,26.24,0,109.9,13.21,2.39,338.2
"2016-02-24 00:10:30",1401072,2.786,27.63,6.513,1.276,4.823,100.9051,1.609,2.77,26.55,0,109.9,13.16,2.37,349.6
"2016-02-24 00:11:00",1401073,4.14,35.21,8.58,1.408,6.459,100.9009,1.598,2.802,26.8,0,109.9,13.16,2.36,357.2
"2016-02-24 00:11:30",1401074,3.067,21.28,11.83,1.61,5.182,100.8944,1.581,2.777,27.03,0,109.9,13.16,2.34,343.3
"2016-02-24 00:12:00",1401075,4.091,27.65,6.199,1.32,6.793,100.8955,1.584,2.787,26.86,0,109.9,13.16,2.34,349.6
"2016-02-24 00:12:30",1401076,3.607,23.03,8.59,1.154,5.317,100.8972,1.589,2.782,26.73,0,109.9,13.16,2.35,345.0
"2016-02-24 00:13:00",1401077,2.097,16.64,6.468,1.192,4.207,100.904,1.606,2.609,26.49,0,109.9,13.16,2.36,338.6
"2016-02-24 00:13:30",1401078,1.896,14.14,5.818,0.982,4.153,100.9026,1.602,2.688,26.59,0,109.9,13.16,2.36,336.1
"2016-02-24 00:14:00",1401079,2.089,13.54,11.21,1.484,5.672,100.902,1.601,2.781,27.16,0,109.9,13.16,2.36,335.5
"2016-02-24 00:14:30",1401080,2.379,10.5,12.4,1.586,5.754,100.9048,1.608,2.786,28.43,0,109.9,13.16,2.37,332.5
"2016-02-24 00:15:00",1401081,3.322,5.329,10.54,1.916,5.949,100.9051,1.609,2.735,31.14,0,109.9,13.16,2.37,327.3
"2016-02-24 00:15:30",1401082,2.431,5.761,17.15,1.385,4.98,100.9088,1.618,2.78,32.54,0,109.9,13.16,2.38,327.8
"2016-02-24 00:16:00",1401083,2.65,12.33,14.17,1.186,4.052,100.9119,1.626,2.696,31.58,0,109.9,13.16,2.38,334.3
"2016-02-24 00:16:30",1401084,1.813,15.01,12.28,0.955,2.934,100.9122,1.627,2.609,30.38,0,109.9,13.2,2.38,337.0
"2016-02-24 00:17:00",1401085,3.102,351.4,13.55,1.913,5.151,100.911,1.624,2.791,31.59,0,109.9,13.16,2.38,313.4
"2016-02-24 00:17:30",1401086,3.973,352.1,10.43,1.517,6.351,100.911,1.624,2.84,32.61,0,109.9,13.16,2.38,314.1
"2016-02-24 00:18:00",1401087,2.716,1.896,13.83,1.356,5.671,100.9119,1.626,2.762,32.8,0,109.9,13.16,2.38,323.9
"2016-02-24 00:18:30",1401088,2.535,12.8,20.74,1.762,5.225,100.9125,1.627,2.821,32.74,0,109.9,13.16,2.39,334.8
"2016-02-24 00:19:00",1401089,1.636,348.1,18.43,1.435,4.336,100.9119,1.626,2.749,32.24,0,109.9,13.15,2.38,310.1
"2016-02-24 00:19:30",1401090,1.538,322.2,7.245,0.395,2.286,100.8921,1.576,2.613,33.02,0,109.9,13.2,2.33,284.2
"2016-02-24 00:20:00",1401091,2.62,308.6,4.699,0.568,2.568,100.8867,1.562,2.604,33.41,0,109.9,13.15,2.32,270.6
"2016-02-24 00:20:30",1401092,4.133,322.1,6.772,1.409,6.091,100.8853,1.558,2.847,34.54,0,109.9,13.15,2.32,284.1
"2016-02-24 00:21:00",1401093,3.239,323,10.42,1.591,6.291,100.883,1.552,2.847,34.47,0,109.9,13.15,2.31,285.0
"2016-02-24 00:21:30",1401094,3.105,326.8,11.24,1.322,5.58,100.8794,1.543,2.842,33.72,0,109.8,13.15,2.30,288.8
"2016-02-24 00:22:00",1401095,2.957,23.04,21.02,1.752,5.077,100.8748,1.531,2.702,33.21,0,109.9,13.15,2.29,345.0
"2016-02-24 00:22:30",1401096,1.936,28.1,7.679,0.84,3.277,100.8771,1.537,2.676,33.68,0,109.9,13.15,2.29,350.1
"2016-02-24 00:23:00",1401097,0.832,13.12,14.11,0.346,2.804,100.8678,1.513,2.559,33.47,0,109.9,13.19,2.27,335.1
"2016-02-24 00:23:30",1401098,0.963,14.23,11.53,0.764,3.118,100.8533,1.477,2.56,33.47,0,109.9,13.15,2.23,336.2
"2016-02-24 00:24:00",1401099,2.125,20.01,18.43,1.433,6.082,100.8412,1.446,2.812,33.97,0,109.9,13.15,2.20,342.0
"2016-02-24 00:24:30",1401100,2.017,3.9,20.1,1.636,6.199,100.8375,1.436,2.734,33.92,0,109.9,13.15,2.19,325.9
"2016-02-24 00:25:00",1401101,2.182,348.8,13.26,1.262,4.161,100.801,1.343,2.583,33.47,0,109.9,13.15,2.10,310.8
"2016-02-24 00:25:30",1401102,3.289,334.1,10.03,1.473,5.125,100.7648,1.251,2.574,34.23,0,109.9,13.15,2.01,296.1
"2016-02-24 00:26:00",1401103,2.948,336,5.526,1.045,3.346,100.7552,1.226,2.341,34.67,0,109.9,13.15,1.98,298.0
"2016-02-24 00:26:30",1401104,4.111,333.9,7.602,1.386,5.55,100.7516,1.217,2.487,35.03,0,109.9,13.15,1.97,295.9
"2016-02-24 00:27:00",1401105,3.369,340.2,8.93,1.314,5.405,100.7501,1.213,2.503,35.24,0,109.9,13.15,1.97,302.2
"2016-02-24 00:27:30",1401106,3.338,332.1,11,1.367,5.058,100.751,1.216,2.477,35.28,0,109.9,13.15,1.97,294.1
"2016-02-24 00:28:00",1401107,3.523,324.4,10.03,1.322,4.897,100.7442,1.198,2.447,35.31,0,109.9,13.15,1.95,286.4
"2016-02-24 00:28:30",1401108,3.925,325.7,8.54,1.424,5.286,100.7422,1.193,2.371,35.26,0,109.9,13.15,1.95,287.7
"2016-02-24 00:29:00",1401109,2.982,321.2,8.24,1.27,4.275,100.7383,1.183,2.399,35.29,0,109.9,13.15,1.94,283.2
"2016-02-24 00:29:30",1401110,3.148,337.1,8.52,1.455,5.534,100.7385,1.184,2.384,35.24,0,109.9,13.15,1.94,299.1
"2016-02-24 00:30:00",1401111,1.482,325.7,10.99,0.117,3.043,100.7385,1.184,2.31,35.23,0,109.9,13.2,1.94,287.7
"2016-02-24 00:30:30",1401112,3.215,333.3,6.254,1.512,5.15,100.7371,1.18,2.427,35.39,0,109.9,13.15,1.94,295.3
"2016-02-24 00:31:00",1401113,3.86,330.5,6.929,1.448,4.759,100.7334,1.171,2.346,35.33,0,109.9,13.15,1.93,292.5
"2016-02-24 00:31:30",1401114,3.963,332.1,6.882,1.363,5.124,100.7264,1.153,2.425,35.24,0,109.9,13.15,1.91,294.1
"2016-02-24 00:32:00",1401115,4.968,334.7,7.48,1.376,6.546,100.7202,1.137,2.385,35.06,0,109.9,13.15,1.89,296.7
"2016-02-24 00:32:30",1401116,3.92,326.4,8.23,1.311,5.385,100.7097,1.11,2.398,34.97,0,109.8,13.15,1.87,288.4
"2016-02-24 00:33:00",1401117,4.412,326.1,7.142,1.444,5.374,100.7052,1.099,2.269,34.72,0,109.9,13.15,1.85,288.1
"2016-02-24 00:33:30",1401118,3.803,318,9.08,1.389,4.564,100.7043,1.097,2.32,34.64,0,109.9,13.15,1.85,280.0
"2016-02-24 00:34:00",1401119,4.207,311.6,7.216,1.497,5.655,100.693,1.068,2.363,34.51,0,109.9,13.15,1.82,273.6
"2016-02-24 00:34:30",1401120,4.62,314.3,7.882,1.504,6.062,100.6848,1.047,2.292,34.37,0,109.9,13.15,1.80,276.3
"2016-02-24 00:35:00",1401121,4.649,320,11.55,1.556,6.422,100.6715,1.013,2.272,34.37,0,109.9,13.15,1.77,282.0
"2016-02-24 00:35:30",1401122,3.827,358.8,18.04,1.548,5.019,100.6591,0.981,2.193,34.42,0,109.9,13.14,1.74,320.8
"2016-02-24 00:36:00",1401123,4.147,342.1,5.073,1.355,4.795,100.6387,0.929,2.197,34.54,0,109.9,13.15,1.68,304.1
"2016-02-24 00:36:30",1401124,5.055,339.3,7.915,1.431,6.81,100.6325,0.913,2.276,34.62,0,109.8,13.14,1.67,301.3
"2016-02-24 00:37:00",1401125,4.257,328.2,6.603,1.421,5.848,100.6144,0.867,2.15,34.61,0,109.8,13.14,1.62,290.2
"2016-02-24 00:37:30",1401126,3.618,315.6,7.876,1.39,6.515,100.6059,0.846,2.161,34.93,0,109.8,13.14,1.60,277.6
"2016-02-24 00:38:00",1401127,2.503,344.1,29.38,1.398,4.735,100.5978,0.825,2.096,34.12,0,109.8,13.14,1.58,306.1
"2016-02-24 00:38:30",1401128,1.844,30.18,9.26,0.935,4.324,100.5763,0.77,2.035,33.33,0,109.8,13.15,1.52,352.2
"2016-02-24 00:39:00",1401129,1.419,337.8,15.59,1.25,4.533,100.5684,0.75,2.055,33.36,0,109.8,13.15,1.50,299.8
"2016-02-24 00:39:30",1401130,1.983,353.6,27,1.555,5.772,100.5474,0.696,1.992,32.78,0,109.8,13.14,1.45,315.6
"2016-02-24 00:40:00",1401131,1.647,23.6,19.49,1.476,4.782,100.5401,0.678,1.919,32.63,0,109.8,13.15,1.43,345.6
"2016-02-24 00:40:30",1401132,2.854,25.75,12.6,1.354,5.221,100.5234,0.635,1.93,32.77,0,109.8,13.15,1.39,347.8
"2016-02-24 00:41:00",1401133,2.348,349.3,10.18,1.484,4.482,100.509,0.598,1.91,32.9,0,109.8,13.16,1.35,311.3
"2016-02-24 00:41:30",1401134,1.372,352.6,18.77,1.105,4.268,100.505,0.588,1.768,32.61,0,109.8,13.16,1.34,314.6
"2016-02-24 00:42:00",1401135,1.91,341.1,7.996,1.498,3.978,100.4903,0.551,1.722,32.45,0,109.8,13.16,1.30,303.1
"2016-02-24 00:42:30",1401136,3.697,342.2,8.77,1.625,5.29,100.479,0.522,1.815,32.84,0,109.8,13.16,1.28,304.2
"2016-02-24 00:43:00",1401137,3.264,334.8,11.67,1.401,5.59,100.4711,0.502,1.803,33.99,0,109.8,13.16,1.26,296.8
"2016-02-24 00:43:30",1401138,4.665,341.6,8.74,1.473,6.914,100.4479,0.443,1.858,35.18,0,109.8,13.16,1.20,303.6
"2016-02-24 00:44:00",1401139,4.795,340.3,8.68,1.347,5.907,100.4411,0.425,1.701,35.47,0,109.8,13.16,1.18,302.3
"2016-02-24 00:44:30",1401140,3.144,345.1,17.08,1.457,4.576,100.4374,0.416,1.639,35.8,0,109.8,13.16,1.17,307.1
"2016-02-24 00:45:00",1401141,3.35,350.7,15.35,1.224,4.542,100.4247,0.383,1.609,35.64,0,109.8,13.16,1.14,312.7
"2016-02-24 00:45:30",1401142,2.788,24.15,9.63,1.406,5.937,100.4117,0.35,1.678,34.56,0,109.8,13.16,1.10,346.1
"2016-02-24 00:46:00",1401143,1.836,13.35,14.43,1.363,5.875,100.4089,0.343,1.622,32.71,0,109.8,13.16,1.10,335.4
"2016-02-24 00:46:30",1401144,0.547,13.4,13.55,0.505,3.158,100.403,0.328,1.452,31.49,0,109.8,13.16,1.08,335.4
"2016-02-24 00:47:00",1401145,1.864,14.52,17.36,1.488,5.212,100.3996,0.319,1.524,31.45,0,109.8,13.16,1.07,336.5
"2016-02-24 00:47:30",1401146,2.766,18.33,10.95,1.219,4.165,100.3866,0.286,1.544,32.34,0,109.8,13.17,1.04,340.3
"2016-02-24 00:48:00",1401147,2.042,17.73,10.79,0.797,2.881,100.3838,0.279,1.364,32.9,0,109.8,13.21,1.03,339.7
"2016-02-24 00:48:30",1401148,3.532,29.5,7.356,1.365,5.54,100.3764,0.26,1.608,33.68,0,109.8,13.17,1.01,351.5
"2016-02-24 00:49:00",1401149,3.332,17.49,15.51,1.384,6.809,100.3728,0.251,1.573,34.03,0,109.8,13.17,1.00,339.5
"2016-02-24 00:49:30",1401150,2.637,30.92,20.75,1.48,5.699,100.3575,0.212,1.438,34.05,0,109.8,13.17,0.96,352.9
"2016-02-24 00:50:00",1401151,1.658,350.2,12.82,1.39,4.921,100.3555,0.207,1.473,34.47,0,109.8,13.17,0.96,312.2
"2016-02-24 00:50:30",1401152,2.318,320.8,10.49,0.985,4.22,100.3428,0.174,1.387,34.84,0,109.8,13.17,0.93,282.8
"2016-02-24 00:51:00",1401153,2.545,327.2,3.975,0.252,2.789,100.3317,0.146,1.248,35.01,0,109.8,13.21,0.90,289.2
"2016-02-24 00:51:30",1401154,2.738,337,8.47,1.167,4.39,100.3244,0.128,1.291,35.04,0,109.8,13.17,0.88,299.0
"2016-02-24 00:52:00",1401155,3.507,342.5,13.09,1.394,6.587,100.3236,0.125,1.446,35.26,0,109.8,13.16,0.88,304.5
"2016-02-24 00:52:30",1401156,2.927,1.754,14.66,1.286,6.852,100.321,0.119,1.435,34.89,0,109.8,13.16,0.87,323.8
"2016-02-24 00:53:00",1401157,1.619,15.36,14.93,1.263,5.765,100.3137,0.1,1.34,34.68,0,109.7,13.17,0.85,337.4
"2016-02-24 00:53:30",1401158,1.956,18.37,8.55,1.361,4.292,100.3111,0.094,1.22,34.2,0,109.7,13.16,0.85,340.4
"2016-02-24 00:54:00",1401159,1.649,25.9,6.418,0.491,2.722,100.3049,0.078,1.128,33.77,0,109.7,13.21,0.83,347.9
"2016-02-24 00:54:30",1401160,1.848,31.21,6.4,0.429,2.925,100.2992,0.063,1.132,33.76,0,109.7,13.21,0.82,353.2
"2016-02-24 00:55:00",1401161,2.457,22.41,9.1,1.263,5.791,100.2939,0.05,1.349,34.39,0,109.8,13.17,0.80,344.4
"2016-02-24 00:55:30",1401162,2.739,13.33,12.5,1.527,6.703,100.2857,0.029,1.319,35.11,0,109.7,13.17,0.78,335.3
"2016-02-24 00:56:00",1401163,3.364,31.86,13.45,1.578,6.678,100.2789,0.012,1.314,35.12,0,109.7,13.17,0.76,353.9
"2016-02-24 00:56:30",1401164,2.148,355.2,23.21,1.286,4.967,100.2713,-0.008,1.268,34.65,0,109.7,13.17,0.74,317.2
"2016-02-24 00:57:00",1401165,1.255,341.9,12.11,0.557,2.794,100.271,-0.009,1.035,35.09,0,109.7,13.22,0.74,303.9
"2016-02-24 00:57:30",1401166,2.28,337.5,4.956,0.224,2.825,100.2665,-0.02,1.02,35.26,0,109.7,13.22,0.73,299.5
"2016-02-24 00:58:00",1401167,2.478,356.3,13.86,1.307,5.297,100.2549,-0.05,1.216,35.51,0,109.7,13.18,0.70,318.3
"2016-02-24 00:58:30",1401168,3.435,355.1,8.7,1.416,6.527,100.2534,-0.053,1.243,35.77,0,109.7,13.18,0.70,317.1
"2016-02-24 00:59:00",1401169,3.485,337,9.86,1.402,6.227,100.2396,-0.089,1.258,35.89,0,109.7,13.18,0.66,299.0
"2016-02-24 00:59:30",1401170,2.795,347,9.88,1.403,5.563,100.2376,-0.094,1.179,36.09,0,109.7,13.18,0.66,309.0
"2016-02-24 01:00:00",1401171,2.549,343.1,8.44,0.569,3.073,100.2348,-0.101,0.969,36.12,0,109.7,13.18,0.65,305.1
"2016-02-24 01:00:30",1401172,2.146,352.1,10.66,0.823,3.501,100.2254,-0.125,0.949,36.42,0,109.7,13.18,0.63,314.1
"2016-02-24 01:01:00",1401173,1.672,357.9,15.3,1.393,4.881,100.2192,-0.141,1.145,36.76,0,109.7,13.18,0.61,319.9
"2016-02-24 01:01:30",1401174,2.429,15.78,13.82,1.412,6.389,100.2088,-0.167,1.074,36.74,0,109.8,13.18,0.58,337.8
"2016-02-24 01:02:00",1401175,2.577,18.48,15.78,1.425,6.271,100.2039,-0.18,1.172,36.97,0,109.7,13.18,0.57,340.5
"2016-02-24 01:02:30",1401176,2.298,31.7,11.8,1.447,5.692,100.2037,-0.18,1.033,36.91,0,109.7,13.18,0.57,353.7
"2016-02-24 01:03:00",1401177,1.905,21.43,6.656,0.277,2.952,100.2034,-0.181,0.915,35.66,0,109.7,13.23,0.57,343.4
"2016-02-24 01:03:30",1401178,2.178,35.61,6.879,1.181,3.889,100.1932,-0.207,0.887,34.56,0,109.7,13.18,0.54,357.6
"2016-02-24 01:04:00",1401179,2.142,34.8,12.54,1.312,5.193,100.1907,-0.213,1.055,33.45,0,109.7,13.18,0.54,356.8
"2016-02-24 01:04:30",1401180,2.626,333.3,8.66,1.045,4.745,100.1785,-0.244,1.006,33.48,0,109.7,13.18,0.51,295.3
"2016-02-24 01:05:00",1401181,3.278,9.45,17.1,1.536,6.286,100.1762,-0.25,0.978,34.39,0,109.7,13.19,0.50,331.5
"2016-02-24 01:05:30",1401182,3.379,30.88,9.78,1.355,6.588,100.1768,-0.249,1.042,34.41,0,109.7,13.19,0.50,352.9
"2016-02-24 01:06:00",1401183,1.479,16.79,10.73,1.087,3.862,100.1728,-0.259,0.918,33.87,0,109.7,13.19,0.49,338.8
"2016-02-24 01:06:30",1401184,3.217,35.91,11.33,1.758,4.283,100.1638,-0.282,0.837,33.34,0,109.7,13.19,0.47,357.9
"2016-02-24 01:07:00",1401185,3.081,34.1,8.42,1.239,5.14,100.1579,-0.297,0.969,32.85,0,109.7,13.19,0.45,356.1
"2016-02-24 01:07:30",1401186,2.453,17.5,16.46,1.38,5.622,100.1536,-0.308,0.874,32.98,0,109.7,13.19,0.44,339.5
"2016-02-24 01:08:00",1401187,2.506,345.5,7.601,1.372,6.052,100.1531,-0.309,1.001,34.13,0,109.7,13.19,0.44,307.5
"2016-02-24 01:08:30",1401188,2.293,349.4,8.81,1.368,5.38,100.1545,-0.306,0.952,35.03,0,109.7,13.19,0.45,311.4
"2016-02-24 01:09:00",1401189,2.264,339.2,10.34,1.268,4.078,100.1525,-0.311,0.829,35.09,0,109.7,13.18,0.44,301.2
"2016-02-24 01:09:30",1401190,1.332,339.2,4.254,0.128,2.696,100.1403,-0.342,0.725,35.71,0,109.7,13.23,0.41,301.2
"2016-02-24 01:10:00",1401191,1.701,346.9,10.55,1.174,4.373,100.1228,-0.387,0.844,36.05,0,109.7,13.18,0.36,308.9
"2016-02-24 01:10:30",1401192,1.955,344.4,8.75,1.408,5.866,100.1219,-0.389,0.913,35.96,0,109.7,13.18,0.36,306.4
"2016-02-24 01:11:00",1401193,1.688,346.7,14.32,1.404,4.819,100.1202,-0.393,0.83,35.7,0,109.7,13.18,0.36,308.7
"2016-02-24 01:11:30",1401194,2.552,22.54,10.18,1.314,6.72,100.1222,-0.388,0.935,35.57,0,109.7,13.18,0.36,344.5
"2016-02-24 01:12:00",1401195,2.139,12.36,17.23,1.391,5.883,100.1234,-0.385,0.838,35.14,0,109.7,13.18,0.37,334.4
"2016-02-24 01:12:30",1401196,0.378,13.34,9.38,0.434,2.781,100.1265,-0.377,0.669,34.44,0,109.7,13.19,0.37,335.3
"2016-02-24 01:13:00",1401197,0.746,349.9,7.607,0.268,2.525,100.1191,-0.396,0.658,34.01,0,109.7,13.23,0.35,311.9
"2016-02-24 01:13:30",1401198,1.739,12.69,10.28,1.308,4.172,100.1129,-0.412,0.753,34.24,0,109.7,13.18,0.34,334.7
"2016-02-24 01:14:00",1401199,1.35,359.5,16.27,1.196,4.752,100.1052,-0.431,0.813,34.72,0,109.7,13.19,0.32,321.5
"2016-02-24 01:14:30",1401200,1.554,345.1,18.36,1.209,3.198,100.101,-0.442,0.659,34.53,0,109.7,13.2,0.31,307.1
"2016-02-24 01:15:00",1401201,3.449,343.6,11.72,1.41,6.788,100.0965,-0.454,0.895,34.85,0,109.7,13.2,0.30,305.6
"2016-02-24 01:15:30",1401202,3.464,355.9,7.493,1.389,6.523,100.0942,-0.459,0.861,34.97,0,109.7,13.2,0.29,317.9
"2016-02-24 01:16:00",1401203,2.079,340.9,5.374,1.086,3.546,100.0965,-0.454,0.612,34.85,0,109.7,13.2,0.30,302.9
"2016-02-24 01:16:30",1401204,2.357,332.6,9.92,1.254,4.249,100.0976,-0.451,0.689,35.07,0,109.7,13.2,0.30,294.6
"2016-02-24 01:17:00",1401205,2.936,330,9.79,1.5,5.692,100.0917,-0.466,0.792,35.47,0,109.7,13.2,0.28,292.0
"2016-02-24 01:17:30",1401206,1.884,341.7,9.3,0.784,3.256,100.0914,-0.467,0.587,35.51,0,109.7,13.2,0.28,303.7
"2016-02-24 01:18:00",1401207,2.457,12.86,16.04,1.477,6.132,100.0843,-0.485,0.764,35.69,0,109.6,13.2,0.27,334.9
"2016-02-24 01:18:30",1401208,2.311,26.08,14.06,1.361,6.428,100.0821,-0.49,0.83,35.83,0,109.6,13.2,0.26,348.1
"2016-02-24 01:19:00",1401209,1.024,7.468,11.79,1.009,3.937,100.0832,-0.487,0.613,35.79,0,109.6,13.2,0.26,329.5
"2016-02-24 01:19:30",1401210,1.702,326.2,10.57,0.282,2.696,100.0741,-0.511,0.551,35.85,0,109.6,13.25,0.24,288.2
"2016-02-24 01:20:00",1401211,2.234,325.1,7.9,1.31,4.839,100.0682,-0.526,0.734,36.1,0,109.7,13.2,0.22,287.1
"2016-02-24 01:20:30",1401212,2.552,342.3,22.98,1.592,5.362,100.0679,-0.526,0.658,36,0,109.6,13.2,0.22,304.3
"2016-02-24 01:21:00",1401213,1.974,356.7,12.88,1.531,4.836,100.0679,-0.526,0.62,36.05,0,109.6,13.2,0.22,318.7
"2016-02-24 01:21:30",1401214,1.986,10.2,15.37,1.321,5.923,100.0671,-0.529,0.738,36.15,0,109.6,13.2,0.22,332.2
"2016-02-24 01:22:00",1401215,1.768,349.4,9.2,1.389,4.051,100.0628,-0.539,0.678,36.14,0,109.6,13.2,0.21,311.4
"2016-02-24 01:22:30",1401216,1.386,322.2,13.61,0.739,3.018,100.0563,-0.556,0.537,36.15,0,109.6,13.2,0.19,284.2
"2016-02-24 01:23:00",1401217,1.221,320.3,4.59,0.141,2.858,100.0512,-0.569,0.525,36.23,0,109.6,13.25,0.18,282.3
"2016-02-24 01:23:30",1401218,2.791,333.1,9.8,1.474,5.918,100.0504,-0.571,0.661,36.38,0,109.6,13.2,0.18,295.1
"2016-02-24 01:24:00",1401219,2.901,0.635,10.27,1.377,6.16,100.0498,-0.573,0.709,36.39,0,109.6,13.2,0.18,322.6
"2016-02-24 01:24:30",1401220,2.062,348.2,8.27,1.249,4.36,100.0456,-0.583,0.622,36.27,0,109.6,13.2,0.17,310.2
"2016-02-24 01:25:00",1401221,2.233,354.9,8,1.474,4.822,100.0371,-0.605,0.677,36.26,0,109.6,13.2,0.14,316.9
"2016-02-24 01:25:30",1401222,2.13,357.4,15.57,1.553,5.08,100.0348,-0.611,0.613,36.19,0,109.6,13.2,0.14,319.4
"2016-02-24 01:26:00",1401223,1.441,320.5,7.072,0.142,2.767,100.0365,-0.607,0.468,36.2,0,109.6,13.24,0.14,282.5
"2016-02-24 01:26:30",1401224,2.008,314.8,6.866,1.236,4.52,100.0399,-0.598,0.594,36.44,0,109.6,13.2,0.15,276.8
"2016-02-24 01:27:00",1401225,3.216,328.1,8.17,1.397,6.719,100.0393,-0.599,0.721,36.56,0,109.6,13.19,0.15,290.1
"2016-02-24 01:27:30",1401226,2.673,329.6,9.97,1.345,5.765,100.043,-0.59,0.564,36.4,0,109.6,13.2,0.16,291.6
"2016-02-24 01:28:00",1401227,1.308,323.9,5.417,0.275,3.327,100.0419,-0.593,0.506,36.39,0,109.6,13.24,0.16,285.9
"2016-02-24 01:28:30",1401228,2.798,325.4,9.33,1.462,5.504,100.041,-0.595,0.63,36.58,0,109.6,13.19,0.15,287.4
"2016-02-24 01:29:00",1401229,2.366,327.8,8.99,1.466,4.383,100.0405,-0.596,0.54,36.62,0,109.6,13.2,0.15,289.8
"2016-02-24 01:29:30",1401230,2.396,322.6,9.26,1.322,4.291,100.0396,-0.599,0.518,36.55,0,109.6,13.2,0.15,284.6
"2016-02-24 01:30:00",1401231,3.513,327.1,13.6,1.494,6.2,100.0348,-0.611,0.696,36.68,0,109.6,13.2,0.14,289.1
"2016-02-24 01:30:30",1401232,3.207,341,9.67,1.375,5.676,100.0331,-0.615,0.625,36.62,0,109.6,13.2,0.13,303.0
"2016-02-24 01:31:00",1401233,2.196,344.1,10.35,1.332,4.339,100.0342,-0.612,0.528,36.43,0,109.6,13.2,0.14,306.1
"2016-02-24 01:31:30",1401234,2.165,327.3,8.81,1.049,3.989,100.0314,-0.619,0.517,36.4,0,109.6,13.2,0.13,289.3
"2016-02-24 01:32:00",1401235,2.548,334.7,6.859,1.287,4.458,100.0323,-0.617,0.535,36.32,0,109.6,13.2,0.13,296.7
"2016-02-24 01:32:30",1401236,3.278,334.7,10.72,1.286,5.933,100.0331,-0.615,0.661,36.27,0,109.6,13.2,0.13,296.7
"2016-02-24 01:33:00",1401237,3.462,338.1,8.3,1.457,5.788,100.0368,-0.606,0.556,36.3,0,109.6,13.21,0.14,300.1
"2016-02-24 01:33:30",1401238,3.033,324.1,9.25,1.502,5.715,100.032,-0.618,0.554,36.27,0,109.6,13.21,0.13,286.1
"2016-02-24 01:34:00",1401239,2.483,319.4,12.76,1.377,4.654,100.0323,-0.617,0.511,36.51,0,109.6,13.21,0.13,281.4
"2016-02-24 01:34:30",1401240,2.224,334,11.03,1,4.133,100.0334,-0.614,0.49,36.49,0,109.6,13.21,0.14,296.0
"2016-02-24 01:35:00",1401241,2.241,339.3,8.76,1.3,4.701,100.028,-0.628,0.5,36.31,0,109.6,13.21,0.12,301.3
"2016-02-24 01:35:30",1401242,2.125,358.1,13.73,1.204,5.297,100.0272,-0.63,0.615,36.16,0,109.6,13.21,0.12,320.1
"2016-02-24 01:36:00",1401243,2.186,348.1,9.88,1.46,5.472,100.026,-0.633,0.513,35.82,0,109.6,13.21,0.12,310.1
"2016-02-24 01:36:30",1401244,1.691,344.7,9.2,1.224,4.578,100.0266,-0.632,0.491,35.75,0,109.6,13.21,0.12,306.7
"2016-02-24 01:37:00",1401245,1.495,344.5,11.42,1.242,4.325,100.0258,-0.634,0.544,35.85,0,109.6,13.21,0.12,306.5
"2016-02-24 01:37:30",1401246,1.213,331.8,5.841,0.242,2.655,100.0272,-0.63,0.381,35.6,0,109.6,13.25,0.12,293.8
"2016-02-24 01:38:00",1401247,1.232,319.4,4.846,0.557,2.723,100.0289,-0.626,0.396,35.6,0,109.6,13.21,0.12,281.4
"2016-02-24 01:38:30",1401248,1.889,322.3,7.535,1.542,5.286,100.0275,-0.63,0.497,35.55,0,109.6,13.21,0.12,284.3
"2016-02-24 01:39:00",1401249,1.087,358.5,11.44,1.187,4.674,100.0283,-0.627,0.563,35.37,0,109.6,13.21,0.12,320.5
"2016-02-24 01:39:30",1401250,2.089,15.76,10.03,1.462,5.835,100.0292,-0.625,0.582,35.34,0,109.6,13.21,0.12,337.8
"2016-02-24 01:40:00",1401251,2.057,345.4,17.06,1.392,5.651,100.0303,-0.622,0.542,35.22,0,109.6,13.21,0.13,307.4
"2016-02-24 01:40:30",1401252,1.796,357.9,12.95,1.144,4.223,100.0286,-0.627,0.492,35.15,0,109.6,13.21,0.12,319.9
"2016-02-24 01:41:00",1401253,1.462,330,7.488,0.136,2.519,100.0292,-0.625,0.385,35.08,0,109.6,13.26,0.12,292.0
"2016-02-24 01:41:30",1401254,2.103,318.5,5.2,1.032,3.888,100.0232,-0.64,0.4,35.45,0,109.6,13.21,0.11,280.5
"2016-02-24 01:42:00",1401255,2.868,325,10.02,1.489,5.584,100.0198,-0.649,0.539,35.91,0,109.6,13.2,0.10,287.0
"2016-02-24 01:42:30",1401256,3.334,318.9,8.64,1.33,6.859,100.017,-0.656,0.619,35.95,0,109.6,13.21,0.09,280.9
"2016-02-24 01:43:00",1401257,3.554,310.7,9.02,1.393,6.424,100.0164,-0.658,0.606,36.15,0,109.6,13.2,0.09,272.7
"2016-02-24 01:43:30",1401258,2.788,307.8,9.18,1.397,5.816,100.0167,-0.657,0.58,36.47,0,109.6,13.2,0.09,269.8
"2016-02-24 01:44:00",1401259,1.242,317.4,2.867,0.729,2.996,100.0153,-0.661,0.357,36.36,0,109.6,13.2,0.09,279.4
"2016-02-24 01:44:30",1401260,1.02,325.6,5.202,0.161,2.679,100.0136,-0.665,0.36,35.98,0,109.6,13.25,0.08,287.6
"2016-02-24 01:45:00",1401261,1.822,333.2,6.916,1.201,4.149,100.0076,-0.68,0.465,35.65,0,109.6,13.2,0.07,295.2
"2016-02-24 01:45:30",1401262,2.676,340.4,9.96,1.365,5.943,100.0048,-0.687,0.611,35.51,0,109.6,13.21,0.06,302.4
"2016-02-24 01:46:00",1401263,2.68,340.3,10.93,1.404,6.055,100.0014,-0.696,0.524,35.21,0,109.6,13.2,0.05,302.3
"2016-02-24 01:46:30",1401264,2.49,331.8,8.34,1.389,5.574,100.0003,-0.699,0.519,35.17,0,109.6,13.2,0.05,293.8
"2016-02-24 01:47:00",1401265,1.682,336.1,6.176,1.438,4.98,100,-0.7,0.459,35.15,0,109.6,13.2,0.05,298.1
"2016-02-24 01:47:30",1401266,0.803,352.7,12.01,0.232,2.628,100,-0.7,0.336,34.75,0,109.6,13.25,0.05,314.7